Terminal Aerodrome Forecast
Issued by NWS Mt. Holly, NJ

Home | Current Version | Previous Version | Text Only | Print | Product List | Glossary On
Versions: 1 2 3 4 5 6 7 8 9 10 11 12 13 14 15 16 17 18 19 20 21 22 23 24 25 26 27 28 29 30 31 32 33 34 35 36 37 38 39 40 41 42 43 44 45 46 47 48 49 50
420
FTUS41 KPHI 230904 AAA
TAFABE
TAF AMD
KABE 230904Z 2309/2406 VRB03KT P6SM SCT200
     FM231000 VRB03KT 4SM BR SCT200
     FM231100 VRB03KT 1SM BR OVC010
     FM231500 23004KT 2SM BR BKN010
     FM231700 23006KT P6SM BKN025
     FM231900 22006KT P6SM BKN040
     FM232300 VRB03KT P6SM BKN040
     FM240500 VRB03KT 4SM BR BKN015=

USA.gov is the U.S. government's official web portal to all federal, state and local government web resources and services.